Time,TemperatureF,DewpointF,PressureIn,WindDirection,WindDirectionDegrees,WindSpeedMPH,WindSpeedGustMPH,Humidity,HourlyPrecipIn,Conditions,Clouds,dailyrainin,SoftwareType,DateUTC
2013-03-12 00:02:00,40.0,37.0,30.13,SSE,161,0.0,4.0,88,0.00,,,0.00,,2013-03-12 04:02:00,
2013-03-12 00:13:00,40.0,37.0,30.13,SSE,161,0.0,4.0,88,0.00,,,0.00,,2013-03-12 04:13:00,
2013-03-12 00:23:00,40.0,37.0,30.13,SE,135,0.0,2.0,88,0.00,,,0.00,,2013-03-12 04:23:00,
2013-03-12 00:32:00,39.0,36.0,30.13,North,0,0.0,0.0,88,0.00,,,0.00,,2013-03-12 04:32:00,
2013-03-12 00:43:00,39.0,36.0,30.13,North,0,0.0,0.0,88,0.00,,,0.00,,2013-03-12 04:43:00,
2013-03-12 00:52:00,39.0,36.0,30.13,North,0,0.0,0.0,88,0.00,,,0.00,,2013-03-12 04:52:00,
2013-03-12 01:02:00,38.0,35.0,30.12,SSE,162,0.0,2.0,89,0.00,,,0.00,,2013-03-12 05:02:00,
2013-03-12 01:12:00,38.0,35.0,30.12,SSE,162,0.0,2.0,89,0.00,,,0.00,,2013-03-12 05:12:00,
2013-03-12 01:22:00,38.0,35.0,30.12,SSE,162,0.0,2.0,89,0.00,,,0.00,,2013-03-12 05:22:00,
2013-03-12 01:32:00,39.0,37.0,30.12,South,171,1.0,5.0,92,0.00,,,0.00,,2013-03-12 05:32:00,
2013-03-12 01:42:00,39.0,37.0,30.12,South,171,1.0,5.0,92,0.00,,,0.00,,2013-03-12 05:42:00,
2013-03-12 01:52:00,39.0,37.0,30.12,SSE,165,0.0,3.0,92,0.00,,,0.00,,2013-03-12 05:52:00,
2013-03-12 02:02:00,41.0,39.0,30.11,SSE,154,1.0,5.0,93,0.00,,,0.00,,2013-03-12 06:02:00,
2013-03-12 02:12:00,41.0,39.0,30.11,SSE,154,1.0,5.0,93,0.00,,,0.00,,2013-03-12 06:12:00,
2013-03-12 02:22:00,41.0,39.0,30.11,SE,137,1.0,5.0,92,0.00,,,0.00,,2013-03-12 06:22:00,
2013-03-12 02:32:00,42.0,40.0,30.11,SSE,167,1.0,5.0,93,0.00,,,0.00,,2013-03-12 06:32:00,
2013-03-12 02:42:00,42.0,40.0,30.11,SSE,167,1.0,5.0,93,0.00,,,0.00,,2013-03-12 06:42:00,
2013-03-12 02:52:00,42.0,40.0,30.11,SSE,167,1.0,5.0,93,0.00,,,0.00,,2013-03-12 06:52:00,
2013-03-12 03:02:00,42.0,40.0,30.10,SE,128,1.0,4.0,92,0.00,,,0.00,,2013-03-12 07:02:00,
2013-03-12 03:12:00,42.0,40.0,30.10,SE,128,1.0,4.0,92,0.00,,,0.00,,2013-03-12 07:12:00,
2013-03-12 03:22:00,42.0,40.0,30.09,SE,136,0.0,4.0,92,0.00,,,0.00,,2013-03-12 07:22:00,
2013-03-12 03:32:00,42.0,40.0,30.07,SE,146,0.0,4.0,92,0.00,,,0.00,,2013-03-12 07:32:00,
2013-03-12 03:42:00,42.0,40.0,30.07,SE,146,0.0,4.0,92,0.00,,,0.00,,2013-03-12 07:42:00,
2013-03-12 03:52:00,43.0,41.0,30.07,SSE,163,1.0,4.0,93,0.00,,,0.00,,2013-03-12 07:52:00,
2013-03-12 04:02:00,43.0,41.0,30.07,SSE,163,1.0,4.0,93,0.00,,,0.00,,2013-03-12 08:02:00,
2013-03-12 04:13:00,43.0,41.0,30.07,SSE,163,1.0,4.0,93,0.00,,,0.00,,2013-03-12 08:13:00,
2013-03-12 04:22:00,43.0,41.0,30.07,SSE,163,1.0,4.0,93,0.00,,,0.00,,2013-03-12 08:22:00,
2013-03-12 04:33:00,43.0,41.0,30.07,South,169,0.0,2.0,93,0.00,,,0.00,,2013-03-12 08:33:00,
2013-03-12 04:42:00,43.0,41.0,30.07,South,169,0.0,2.0,93,0.00,,,0.00,,2013-03-12 08:42:00,
2013-03-12 04:52:00,43.0,41.0,30.06,SE,142,1.0,3.0,93,0.00,,,0.00,,2013-03-12 08:52:00,
2013-03-12 05:03:00,43.0,41.0,30.06,SE,142,1.0,3.0,93,0.00,,,0.00,,2013-03-12 09:03:00,
2013-03-12 05:12:00,43.0,41.0,30.06,SE,142,1.0,3.0,93,0.00,,,0.00,,2013-03-12 09:12:00,
2013-03-12 05:22:00,43.0,41.0,30.06,SE,143,0.0,3.0,93,0.00,,,0.00,,2013-03-12 09:22:00,
2013-03-12 05:33:00,43.0,41.0,30.06,SE,143,0.0,3.0,93,0.00,,,0.00,,2013-03-12 09:33:00,
2013-03-12 05:43:00,43.0,41.0,30.06,SE,143,0.0,3.0,93,0.00,,,0.00,,2013-03-12 09:43:00,
2013-03-12 05:52:00,42.0,40.0,30.05,East,95,0.0,5.0,93,0.00,,,0.00,,2013-03-12 09:52:00,
2013-03-12 06:02:00,42.0,40.0,30.06,ESE,115,0.0,3.0,93,0.00,,,0.00,,2013-03-12 10:02:00,
2013-03-12 06:12:00,42.0,40.0,30.06,ESE,115,0.0,3.0,93,0.00,,,0.00,,2013-03-12 10:12:00,
2013-03-12 06:22:00,42.0,40.0,30.05,SSE,162,0.0,1.0,93,0.00,,,0.00,,2013-03-12 10:22:00,
2013-03-12 06:32:00,42.0,40.0,30.05,SSE,162,0.0,1.0,93,0.00,,,0.00,,2013-03-12 10:32:00,
2013-03-12 06:42:00,42.0,40.0,30.05,SSE,162,0.0,1.0,93,0.00,,,0.00,,2013-03-12 10:42:00,
2013-03-12 06:52:00,42.0,40.0,30.05,SE,130,0.0,3.0,93,0.00,,,0.00,,2013-03-12 10:52:00,
2013-03-12 07:02:00,42.0,40.0,30.05,SE,139,0.0,4.0,93,0.00,,,0.00,,2013-03-12 11:02:00,
2013-03-12 07:12:00,42.0,40.0,30.05,SE,139,0.0,4.0,93,0.00,,,0.00,,2013-03-12 11:12:00,
2013-03-12 07:22:00,43.0,41.0,30.04,SSE,155,1.0,5.0,93,0.00,,,0.00,,2013-03-12 11:22:00,
2013-03-12 07:32:00,43.0,41.0,30.03,SE,128,0.0,2.0,93,0.00,,,0.00,,2013-03-12 11:32:00,
2013-03-12 07:42:00,43.0,41.0,30.03,SE,128,0.0,2.0,93,0.00,,,0.00,,2013-03-12 11:42:00,
2013-03-12 07:52:00,43.0,41.0,30.03,South,185,0.0,2.0,93,0.00,,,0.00,,2013-03-12 11:52:00,
2013-03-12 08:03:00,43.0,41.0,30.03,South,184,0.0,2.0,93,0.00,,,0.00,,2013-03-12 12:03:00,
2013-03-12 08:12:00,43.0,41.0,30.03,South,184,0.0,2.0,93,0.00,,,0.00,,2013-03-12 12:12:00,
2013-03-12 08:22:00,42.0,40.0,30.03,South,184,0.0,1.0,93,0.00,,,0.00,,2013-03-12 12:22:00,
2013-03-12 08:32:00,42.0,40.0,30.03,SSE,168,0.0,1.0,93,0.00,,,0.00,,2013-03-12 12:32:00,
2013-03-12 08:42:00,42.0,40.0,30.03,SSE,168,0.0,1.0,93,0.00,,,0.00,,2013-03-12 12:42:00,
2013-03-12 08:52:00,42.0,40.0,30.03,North,0,0.0,0.0,93,0.00,,,0.00,,2013-03-12 12:52:00,
2013-03-12 09:02:00,42.0,40.0,30.02,North,0,0.0,0.0,94,0.00,,,0.00,,2013-03-12 13:02:00,
2013-03-12 09:12:00,42.0,40.0,30.02,North,0,0.0,0.0,94,0.00,,,0.00,,2013-03-12 13:12:00,
2013-03-12 09:22:00,43.0,41.0,30.03,North,0,0.0,0.0,94,0.00,,,0.00,,2013-03-12 13:22:00,
2013-03-12 09:32:00,44.0,42.0,30.03,North,0,0.0,0.0,94,0.00,,,0.00,,2013-03-12 13:32:00,
2013-03-12 09:42:00,44.0,42.0,30.03,North,0,0.0,0.0,94,0.00,,,0.00,,2013-03-12 13:42:00,
2013-03-12 09:52:00,44.0,42.0,30.03,North,0,0.0,0.0,94,0.00,,,0.00,,2013-03-12 13:52:00,
2013-03-12 10:02:00,44.0,42.0,30.02,SSE,165,0.0,2.0,94,0.00,,,0.00,,2013-03-12 14:02:00,
2013-03-12 10:12:00,44.0,42.0,30.02,SSE,165,0.0,2.0,94,0.00,,,0.00,,2013-03-12 14:12:00,
2013-03-12 10:22:00,45.0,43.0,30.02,ESE,122,1.0,7.0,94,0.00,,,0.00,,2013-03-12 14:22:00,
2013-03-12 10:33:00,45.0,43.0,30.02,ESE,122,1.0,7.0,94,0.00,,,0.00,,2013-03-12 14:33:00,
2013-03-12 10:42:00,45.0,43.0,30.02,ESE,122,1.0,7.0,94,0.00,,,0.00,,2013-03-12 14:42:00,
2013-03-12 10:53:00,47.0,45.0,30.00,SE,137,1.0,8.0,94,0.00,,,0.00,,2013-03-12 14:53:00,
2013-03-12 11:02:00,48.0,46.0,30.00,SSE,149,1.0,5.0,94,0.00,,,0.00,,2013-03-12 15:02:00,
2013-03-12 11:13:00,48.0,46.0,30.00,SSE,149,1.0,5.0,94,0.00,,,0.00,,2013-03-12 15:13:00,
2013-03-12 11:22:00,49.0,47.0,29.99,SE,136,2.0,9.0,93,0.00,,,0.00,,2013-03-12 15:22:00,
2013-03-12 11:32:00,50.0,47.0,29.98,South,175,2.0,9.0,90,0.00,,,0.00,,2013-03-12 15:32:00,
2013-03-12 11:42:00,50.0,47.0,29.98,South,175,2.0,9.0,90,0.00,,,0.00,,2013-03-12 15:42:00,
2013-03-12 11:53:00,50.0,47.0,29.98,SSE,154,2.0,9.0,89,0.00,,,0.00,,2013-03-12 15:53:00,
2013-03-12 12:03:00,51.0,48.0,29.97,SSE,147,2.0,10.0,88,0.00,,,0.00,,2013-03-12 16:03:00,
2013-03-12 12:12:00,51.0,48.0,29.97,SSE,147,2.0,10.0,88,0.00,,,0.00,,2013-03-12 16:12:00,
2013-03-12 12:22:00,51.0,48.0,29.97,SE,137,2.0,9.0,89,0.00,,,0.00,,2013-03-12 16:22:00,
2013-03-12 12:33:00,51.0,48.0,29.96,SSE,154,2.0,8.0,88,0.00,,,0.00,,2013-03-12 16:33:00,
2013-03-12 12:43:00,51.0,48.0,29.96,SSE,154,2.0,8.0,88,0.00,,,0.00,,2013-03-12 16:43:00,
2013-03-12 12:52:00,52.0,49.0,29.96,SSE,157,2.0,8.0,88,0.00,,,0.00,,2013-03-12 16:52:00,
2013-03-12 13:03:00,52.0,49.0,29.96,SSE,157,2.0,8.0,88,0.00,,,0.00,,2013-03-12 17:03:00,
2013-03-12 13:13:00,52.0,49.0,29.96,SSE,157,2.0,8.0,88,0.00,,,0.00,,2013-03-12 17:13:00,
2013-03-12 13:22:00,53.0,48.0,29.94,SSE,149,2.0,7.0,84,0.00,,,0.00,,2013-03-12 17:22:00,
2013-03-12 13:34:00,53.0,48.0,29.94,SSE,149,2.0,7.0,84,0.00,,,0.00,,2013-03-12 17:34:00,
2013-03-12 13:44:00,53.0,48.0,29.94,SSE,149,2.0,7.0,84,0.00,,,0.00,,2013-03-12 17:44:00,
2013-03-12 13:54:00,53.0,49.0,29.93,SE,136,2.0,8.0,85,0.00,,,0.00,,2013-03-12 17:54:00,
2013-03-12 14:03:00,53.0,48.0,29.91,SE,126,1.0,7.0,84,0.00,,,0.00,,2013-03-12 18:03:00,
2013-03-12 14:13:00,53.0,48.0,29.91,SE,126,1.0,7.0,84,0.00,,,0.00,,2013-03-12 18:13:00,
2013-03-12 14:23:00,53.0,48.0,29.91,SE,126,1.0,7.0,84,0.00,,,0.00,,2013-03-12 18:23:00,
2013-03-12 14:33:00,54.0,49.0,29.89,SE,143,2.0,9.0,83,0.00,,,0.00,,2013-03-12 18:33:00,
2013-03-12 14:42:00,54.0,49.0,29.89,SE,143,2.0,9.0,83,0.00,,,0.00,,2013-03-12 18:42:00,
2013-03-12 14:50:00,54.0,50.0,29.88,ESE,121,2.0,5.0,85,0.00,,,0.00,,2013-03-12 18:50:00,
2013-03-12 14:53:00,54.0,49.0,29.89,SE,143,2.0,7.0,83,0.00,,,0.00,,2013-03-12 18:53:00,
2013-03-12 15:04:00,54.0,50.0,29.88,ESE,121,2.0,5.0,85,0.00,,,0.00,,2013-03-12 19:04:00,
2013-03-12 15:13:00,54.0,50.0,29.88,ESE,121,2.0,5.0,85,0.00,,,0.00,,2013-03-12 19:13:00,
2013-03-12 15:23:00,54.0,50.0,29.88,ESE,121,2.0,5.0,85,0.00,,,0.00,,2013-03-12 19:23:00,
2013-03-12 15:33:00,54.0,50.0,29.88,ESE,121,2.0,5.0,85,0.00,,,0.00,,2013-03-12 19:33:00,
2013-03-12 15:43:00,54.0,50.0,29.88,ESE,121,2.0,5.0,85,0.00,,,0.00,,2013-03-12 19:43:00,
2013-03-12 16:02:00,51.0,48.0,29.86,East,97,0.0,5.0,91,0.01,,,0.01,,2013-03-12 20:02:00,
2013-03-12 16:13:00,51.0,48.0,29.86,East,97,0.0,5.0,91,0.01,,,0.01,,2013-03-12 20:13:00,
2013-03-12 16:23:00,51.0,48.0,29.86,East,97,0.0,5.0,91,0.01,,,0.01,,2013-03-12 20:23:00,
2013-03-12 16:33:00,51.0,49.0,29.84,ESE,111,1.0,5.0,93,0.02,,,0.02,,2013-03-12 20:33:00,
2013-03-12 16:42:00,51.0,49.0,29.84,ESE,111,1.0,5.0,93,0.02,,,0.02,,2013-03-12 20:42:00,
2013-03-12 16:53:00,51.0,49.0,29.84,ESE,111,1.0,5.0,93,0.02,,,0.02,,2013-03-12 20:53:00,
2013-03-12 17:03:00,51.0,49.0,29.82,SE,125,2.0,8.0,93,0.01,,,0.02,,2013-03-12 21:03:00,
2013-03-12 17:13:00,51.0,49.0,29.82,SE,125,2.0,8.0,93,0.01,,,0.02,,2013-03-12 21:13:00,
2013-03-12 17:22:00,51.0,49.0,29.81,SE,132,1.0,7.0,93,0.00,,,0.02,,2013-03-12 21:22:00,
2013-03-12 17:33:00,51.0,49.0,29.81,SE,132,1.0,7.0,93,0.00,,,0.02,,2013-03-12 21:33:00,
2013-03-12 17:43:00,51.0,49.0,29.81,SE,132,1.0,7.0,93,0.00,,,0.02,,2013-03-12 21:43:00,
2013-03-12 17:52:00,51.0,49.0,29.80,ESE,115,2.0,7.0,93,0.04,,,0.06,,2013-03-12 21:52:00,
2013-03-12 18:02:00,51.0,49.0,29.78,ESE,118,2.0,8.0,93,0.05,,,0.07,,2013-03-12 22:02:00,
2013-03-12 18:13:00,51.0,49.0,29.78,ESE,118,2.0,8.0,93,0.05,,,0.07,,2013-03-12 22:13:00,
2013-03-12 18:23:00,51.0,49.0,29.78,SE,129,1.0,8.0,93,0.08,,,0.10,,2013-03-12 22:23:00,
2013-03-12 18:33:00,51.0,49.0,29.77,ESE,115,2.0,10.0,93,0.08,,,0.14,,2013-03-12 22:33:00,
2013-03-12 18:43:00,51.0,49.0,29.77,ESE,115,2.0,10.0,93,0.08,,,0.14,,2013-03-12 22:43:00,
2013-03-12 18:52:00,51.0,49.0,29.77,ESE,115,2.0,10.0,93,0.08,,,0.14,,2013-03-12 22:52:00,
2013-03-12 19:03:00,51.0,49.0,29.76,SE,125,2.0,7.0,94,0.10,,,0.16,,2013-03-12 23:03:00,
2013-03-12 19:12:00,51.0,49.0,29.76,SE,125,2.0,7.0,94,0.10,,,0.16,,2013-03-12 23:12:00,
2013-03-12 19:22:00,51.0,49.0,29.76,SE,125,2.0,7.0,94,0.10,,,0.16,,2013-03-12 23:22:00,
2013-03-12 19:34:00,52.0,50.0,29.75,SE,127,2.0,9.0,94,0.13,,,0.25,,2013-03-12 23:34:00,
2013-03-12 19:43:00,52.0,50.0,29.75,SE,127,2.0,9.0,94,0.13,,,0.25,,2013-03-12 23:43:00,
2013-03-12 19:53:00,52.0,50.0,29.75,SE,127,2.0,9.0,94,0.13,,,0.25,,2013-03-12 23:53:00,
2013-03-12 20:03:00,52.0,50.0,29.72,ESE,122,2.0,10.0,94,0.17,,,0.35,,2013-03-13 00:03:00,
2013-03-12 20:13:00,52.0,50.0,29.72,ESE,122,2.0,10.0,94,0.17,,,0.35,,2013-03-13 00:13:00,
2013-03-12 20:23:00,52.0,50.0,29.71,ESE,114,1.0,7.0,94,0.14,,,0.36,,2013-03-13 00:23:00,
2013-03-12 20:33:00,52.0,50.0,29.70,SE,137,3.0,12.0,94,0.13,,,0.41,,2013-03-13 00:33:00,
2013-03-12 20:42:00,52.0,50.0,29.70,SE,137,3.0,12.0,94,0.13,,,0.41,,2013-03-13 00:42:00,
2013-03-12 20:53:00,52.0,50.0,29.70,SE,137,3.0,12.0,94,0.13,,,0.41,,2013-03-13 00:53:00,
2013-03-12 21:03:00,52.0,50.0,29.70,SE,130,2.0,11.0,94,0.07,,,0.42,,2013-03-13 01:03:00,
2013-03-12 21:13:00,52.0,50.0,29.70,SE,130,2.0,11.0,94,0.07,,,0.42,,2013-03-13 01:13:00,
2013-03-12 21:22:00,52.0,50.0,29.70,SE,130,2.0,11.0,94,0.07,,,0.42,,2013-03-13 01:22:00,
2013-03-12 21:33:00,53.0,51.0,29.70,SSE,161,2.0,11.0,94,0.02,,,0.42,,2013-03-13 01:33:00,
2013-03-12 21:43:00,53.0,51.0,29.70,SSE,161,2.0,11.0,94,0.02,,,0.42,,2013-03-13 01:43:00,
2013-03-12 21:52:00,53.0,51.0,29.71,South,186,1.0,7.0,94,0.01,,,0.42,,2013-03-13 01:52:00,
2013-03-12 22:03:00,53.0,51.0,29.71,SW,216,2.0,6.0,94,0.00,,,0.42,,2013-03-13 02:03:00,
2013-03-12 22:12:00,53.0,51.0,29.71,SW,216,2.0,6.0,94,0.00,,,0.42,,2013-03-13 02:12:00,
2013-03-12 22:22:00,53.0,51.0,29.71,SW,216,2.0,6.0,94,0.00,,,0.42,,2013-03-13 02:22:00,
2013-03-12 22:32:00,52.0,50.0,29.71,South,185,2.0,7.0,94,0.00,,,0.42,,2013-03-13 02:32:00,
2013-03-12 22:43:00,52.0,50.0,29.71,South,185,2.0,7.0,94,0.00,,,0.42,,2013-03-13 02:43:00,
2013-03-12 22:52:00,53.0,51.0,29.71,South,185,2.0,7.0,94,0.00,,,0.42,,2013-03-13 02:52:00,
2013-03-12 23:02:00,53.0,51.0,29.71,South,176,2.0,9.0,94,0.00,,,0.42,,2013-03-13 03:02:00,
2013-03-12 23:13:00,53.0,51.0,29.71,South,176,2.0,9.0,94,0.00,,,0.42,,2013-03-13 03:13:00,
2013-03-12 23:22:00,53.0,51.0,29.71,South,176,2.0,9.0,94,0.00,,,0.42,,2013-03-13 03:22:00,
2013-03-12 23:32:00,52.0,50.0,29.71,SW,219,1.0,4.0,94,0.00,,,0.42,,2013-03-13 03:32:00,
2013-03-12 23:42:00,52.0,50.0,29.71,SW,219,1.0,4.0,94,0.00,,,0.42,,2013-03-13 03:42:00,
2013-03-12 23:53:00,52.0,50.0,29.71,SW,219,1.0,4.0,94,0.00,,,0.42,,2013-03-13 03:53:00,